This is the latest recevied weather packets stored in our database for station/object K5DLF-9. If no packets are shown the sender has not sent any weather packets the latest 10 day(s).
| Time | Temp. | Humidity | Pressure | Rain* | Wind** | Luminosity | Snow |
|---|---|---|---|---|---|---|---|
| 1788369339 | 33.33° C | 77% | 1012.3 hPa | 0 mm | - | 700 W/m² | - |
| 1788368139 | 31.67° C | 80% | 1012.7 hPa | 0 mm | - | 461 W/m² | - |
| 1788367540 | 31.67° C | 80% | 1012.8 hPa | 0 mm | - | 323 W/m² | - |
| 1788365141 | 30.56° C | 86% | 1012.9 hPa | 0 mm | - | 308 W/m² | - |
| 1788363340 | 29.44° C | 89% | 1012.8 hPa | 0 mm | - | 221 W/m² | - |
| 1788361539 | 28.33° C | 92% | 1012.6 hPa | 0 mm | - | 195 W/m² | - |
| 1788360940 | 27.78° C | 93% | 1012.6 hPa | 0 mm | - | 178 W/m² | - |
| 1788354940 | 25.56° C | 91% | 1012.2 hPa | 0 mm | - | 56 W/m² | - |
| 1788351338 | 25.56° C | 90% | 1011.5 hPa | 0 mm | - | 7 W/m² | - |
| 1788348340 | 26.11° C | 93% | 1011 hPa | 0 mm | - | 0 W/m² | - |
| 1788347741 | 26.11° C | 93% | 1011 hPa | 0 mm | - | 0 W/m² | - |
| 1788337541 | 26.67° C | 92% | 1010.7 hPa | 0 mm | - | 0 W/m² | - |
| 1788335140 | 26.67° C | 92% | 1010.9 hPa | 0 mm | - | 0 W/m² | - |
| 1788327102 | 26.67° C | 91% | 1010.9 hPa | 0 mm | - | 0 W/m² | - |
| 1788311912 | 27.78° C | 84% | 1009.4 hPa | 0 mm | - | 0 W/m² | - |
| 1787953824 | 24.44° C | 88% | 1012.2 hPa | 0 mm | - | 69 W/m² | - |
| 1787937623 | 35° C | 67% | 1014.4 hPa | 0 mm | - | 842 W/m² | - |
| 1787908824 | 27.22° C | 90% | 1012.8 hPa | 0 mm | - | 0 W/m² | - |
| 1787899223 | 27.22° C | 89% | 1012.8 hPa | 0 mm | - | 0 W/m² | - |
| 1787810433 | 27.22° C | 88% | 1011.8 hPa | 0 mm | - | 0 W/m² | - |
| 1787802626 | 27.78° C | 85% | 1011.5 hPa | 0 mm | - | 0 W/m² | - |
| 1787721030 | 27.22° C | 87% | 1013 hPa | 0 mm | - | 0 W/m² | - |
| 1787716234 | 27.78° C | 86% | 1013.2 hPa | 0 mm | - | 0 W/m² | - |
* Rain latest hour (hover to see other rain measurements)
** Current wind speed in m/s (hover to see current wind gust speed)